Data supplied by UK-AIR on 8/11/2015
All Data GMT hour ending 
Status: R =Ratified P=Provisional,P*=As supplied
,,Inverness,,,,,,,,,,,,,,,,,,,,,,,
Date,time,"Nitric oxide",status,unit,"Nitrogen dioxide",status,unit,"Nitrogen oxides as nitrogen dioxide",status,unit,"Daily measured PM<sub>10</sub> (uncorrected)",status,unit,"Daily measured PM<sub>2.5</sub> (uncorrected)",status,unit
 
01-01-2014,01:00,2.50292,R,ugm-3,8.56928,R,ugm-3,12.40703,R,ugm-3,,,,,,
01-01-2014,02:00,2.80019,R,ugm-3,10.54935,R,ugm-3,14.84291,R,ugm-3,,,,,,
01-01-2014,03:00,2.23017,R,ugm-3,10.62394,R,ugm-3,14.04349,R,ugm-3,,,,,,
01-01-2014,04:00,2.60156,R,ugm-3,10.51110,R,ugm-3,14.50010,R,ugm-3,,,,,,
01-01-2014,05:00,3.27104,R,ugm-3,14.16637,R,ugm-3,19.18190,R,ugm-3,,,,,,
01-01-2014,06:00,1.85848,R,ugm-3,7.76905,R,ugm-3,10.61868,R,ugm-3,,,,,,
01-01-2014,07:00,1.85848,R,ugm-3,9.36743,R,ugm-3,12.21705,R,ugm-3,,,,,,
01-01-2014,08:00,2.49023,R,ugm-3,15.24932,R,ugm-3,19.06763,R,ugm-3,,,,,,
01-01-2014,09:00,3.01067,R,ugm-3,10.45468,R,ugm-3,15.07098,R,ugm-3,,,,,,
01-01-2014,10:00,6.76473,R,ugm-3,33.81348,R,ugm-3,44.18592,R,ugm-3,,,,,,
01-01-2014,11:00,13.04613,R,ugm-3,35.77188,R,ugm-3,55.77567,R,ugm-3,,,,,,
01-01-2014,12:00,17.76717,R,ugm-3,38.18019,R,ugm-3,65.42280,R,ugm-3,,,,,,
01-01-2014,13:00,23.04512,R,ugm-3,40.42021,R,ugm-3,75.75556,R,ugm-3,,,,,,
01-01-2014,14:00,11.11344,R,ugm-3,25.94737,R,ugm-3,42.98774,R,ugm-3,,,,,,
01-01-2014,15:00,11.78293,R,ugm-3,35.59593,R,ugm-3,53.66284,R,ugm-3,,,,,,
01-01-2014,16:00,1.70974,R,ugm-3,10.39492,R,ugm-3,13.01648,R,ugm-3,,,,,,
01-01-2014,17:00,1.33773,R,ugm-3,7.42528,R,ugm-3,9.47644,R,ugm-3,,,,,,
01-01-2014,18:00,1.15219,R,ugm-3,6.16877,R,ugm-3,7.93544,R,ugm-3,,,,,,
01-01-2014,19:00,1.04087,R,ugm-3,6.45325,R,ugm-3,8.04923,R,ugm-3,,,,,,
01-01-2014,20:00,1.15219,R,ugm-3,7.36695,R,ugm-3,9.13362,R,ugm-3,,,,,,
01-01-2014,21:00,1.04087,R,ugm-3,5.76810,R,ugm-3,7.36408,R,ugm-3,,,,,,
01-01-2014,22:00,0.66887,R,ugm-3,3.42720,R,ugm-3,4.45278,R,ugm-3,,,,,,
01-01-2014,23:00,1.26352,R,ugm-3,9.99377,R,ugm-3,11.93113,R,ugm-3,,,,,,
01-01-2014,24:00,7.09932,R,ugm-3,31.98800,R,ugm-3,42.87347,R,ugm-3,,,,,,
02-01-2014,01:00,2.60436,R,ugm-3,6.67208,R,ugm-3,10.66538,R,ugm-3,,,,,,
02-01-2014,02:00,1.06644,R,ugm-3,2.09738,R,ugm-3,3.73256,R,ugm-3,,,,,,
02-01-2014,03:00,0.89276,R,ugm-3,1.54482,R,ugm-3,2.91369,R,ugm-3,,,,,,
02-01-2014,04:00,0.63238,R,ugm-3,0.68754,R,ugm-3,1.65718,R,ugm-3,,,,,,
02-01-2014,05:00,0.59496,R,ugm-3,0.45852,R,ugm-3,1.37078,R,ugm-3,,,,,,
02-01-2014,06:00,0.85565,R,ugm-3,0.74492,R,ugm-3,2.05689,R,ugm-3,,,,,,
02-01-2014,07:00,1.41382,R,ugm-3,2.51685,R,ugm-3,4.68467,R,ugm-3,,,,,,
02-01-2014,08:00,3.05027,R,ugm-3,4.63590,R,ugm-3,9.31292,R,ugm-3,,,,,,
02-01-2014,09:00,5.20810,R,ugm-3,10.12669,R,ugm-3,18.11233,R,ugm-3,,,,,,
02-01-2014,10:00,3.64586,R,ugm-3,5.26511,R,ugm-3,10.85535,R,ugm-3,,,,,,
02-01-2014,11:00,7.10556,R,ugm-3,10.47333,R,ugm-3,21.36836,R,ugm-3,,,,,,
02-01-2014,12:00,8.89107,R,ugm-3,10.02150,R,ugm-3,23.65428,R,ugm-3,,,,,,
02-01-2014,13:00,9.74671,R,ugm-3,13.16613,R,ugm-3,28.11088,R,ugm-3,,,,,,
02-01-2014,14:00,11.56933,R,ugm-3,14.99974,R,ugm-3,32.73913,R,ugm-3,,,,,,
02-01-2014,15:00,19.15790,R,ugm-3,33.58828,R,ugm-3,62.96333,R,ugm-3,,,,,,
02-01-2014,16:00,38.20480,R,ugm-3,53.29277,R,ugm-3,111.87264,R,ugm-3,,,,,,
02-01-2014,17:00,27.93765,R,ugm-3,48.52299,R,ugm-3,91.36013,R,ugm-3,,,,,,
02-01-2014,18:00,49.55149,R,ugm-3,63.54855,R,ugm-3,139.52644,R,ugm-3,,,,,,
02-01-2014,19:00,63.35286,R,ugm-3,63.01209,R,ugm-3,160.15179,R,ugm-3,,,,,,
02-01-2014,20:00,47.02165,R,ugm-3,67.76992,R,ugm-3,139.86878,R,ugm-3,,,,,,
02-01-2014,21:00,57.84728,R,ugm-3,77.05367,R,ugm-3,165.75159,R,ugm-3,,,,,,
02-01-2014,22:00,9.07691,R,ugm-3,30.70567,R,ugm-3,44.62341,R,ugm-3,,,,,,
02-01-2014,23:00,3.42228,R,ugm-3,18.06404,R,ugm-3,23.31146,R,ugm-3,,,,,,
02-01-2014,24:00,1.86004,R,ugm-3,13.14557,R,ugm-3,15.99758,R,ugm-3,,,,,,
03-01-2014,01:00,0.52096,R,ugm-3,8.42648,R,ugm-3,9.22526,R,ugm-3,,,,,,
03-01-2014,02:00,1.41361,R,ugm-3,5.07578,R,ugm-3,7.24328,R,ugm-3,,,,,,
03-01-2014,03:00,0.52106,R,ugm-3,1.60268,R,ugm-3,2.40162,R,ugm-3,,,,,,
03-01-2014,04:00,1.26507,R,ugm-3,4.40783,R,ugm-3,6.34759,R,ugm-3,,,,,,
03-01-2014,05:00,1.26507,R,ugm-3,3.14941,R,ugm-3,5.08916,R,ugm-3,,,,,,
03-01-2014,06:00,3.72007,R,ugm-3,9.62131,R,ugm-3,15.32534,R,ugm-3,,,,,,
03-01-2014,07:00,12.42529,R,ugm-3,25.78050,R,ugm-3,44.83235,R,ugm-3,,,,,,
03-01-2014,08:00,7.55178,R,ugm-3,14.55413,R,ugm-3,26.13336,R,ugm-3,,,,,,
03-01-2014,09:00,10.00709,R,ugm-3,24.28445,R,ugm-3,39.62843,R,ugm-3,,,,,,
03-01-2014,10:00,8.33290,R,ugm-3,15.07146,R,ugm-3,27.84839,R,ugm-3,,,,,,
03-01-2014,11:00,10.82532,R,ugm-3,14.45228,R,ugm-3,31.05087,R,ugm-3,,,,,,
03-01-2014,12:00,11.97845,R,ugm-3,16.28637,R,ugm-3,34.65307,R,ugm-3,,,,,,
03-01-2014,13:00,10.41651,R,ugm-3,14.62154,R,ugm-3,30.59331,R,ugm-3,,,,,,
03-01-2014,14:00,10.49073,R,ugm-3,14.96483,R,ugm-3,31.05039,R,ugm-3,,,,,,
03-01-2014,15:00,9.44861,R,ugm-3,11.87423,R,ugm-3,26.36190,R,ugm-3,,,,,,
03-01-2014,16:00,10.23004,R,ugm-3,14.44989,R,ugm-3,30.13574,R,ugm-3,,,,,,
03-01-2014,17:00,13.95043,R,ugm-3,19.89622,R,ugm-3,41.28657,R,ugm-3,,,,,,
03-01-2014,18:00,9.11402,R,ugm-3,10.78602,R,ugm-3,24.76066,R,ugm-3,,,,,,
03-01-2014,19:00,6.36092,R,ugm-3,10.54696,R,ugm-3,20.30023,R,ugm-3,,,,,,
03-01-2014,20:00,7.55178,R,ugm-3,11.00835,R,ugm-3,22.58758,R,ugm-3,,,,,,
03-01-2014,21:00,4.72477,R,ugm-3,6.36528,R,ugm-3,13.60983,R,ugm-3,,,,,,
03-01-2014,22:00,3.27385,R,ugm-3,3.04327,R,ugm-3,8.06310,R,ugm-3,,,,,,
03-01-2014,23:00,1.89714,R,ugm-3,1.32297,R,ugm-3,4.23188,R,ugm-3,,,,,,
03-01-2014,24:00,1.59966,R,ugm-3,2.92230,R,ugm-3,5.37508,R,ugm-3,,,,,,
04-01-2014,01:00,1.26601,R,ugm-3,0.87975,R,ugm-3,2.82094,R,ugm-3,,,,,,
04-01-2014,02:00,0.71969,R,ugm-3,1.86979,R,ugm-3,2.97330,R,ugm-3,,,,,,
04-01-2014,03:00,0.93080,R,ugm-3,0.00239,R,ugm-3,1.42959,R,ugm-3,,,,,,
04-01-2014,04:00,0.67042,R,ugm-3,0.11618,R,ugm-3,1.14415,R,ugm-3,,,,,,
04-01-2014,05:00,1.04243,R,ugm-3,0.11714,R,ugm-3,1.71551,R,ugm-3,,,,,,
04-01-2014,06:00,0.81916,R,ugm-3,1.08869,R,ugm-3,2.34473,R,ugm-3,,,,,,
04-01-2014,07:00,3.09050,R,ugm-3,3.89624,R,ugm-3,8.63494,R,ugm-3,,,,,,
04-01-2014,08:00,2.90434,R,ugm-3,3.95314,R,ugm-3,8.40639,R,ugm-3,,,,,,
04-01-2014,09:00,9.41961,R,ugm-3,13.46257,R,ugm-3,27.90577,R,ugm-3,,,,,,
04-01-2014,10:00,7.55801,R,ugm-3,13.17187,R,ugm-3,24.76066,R,ugm-3,,,,,,
04-01-2014,11:00,15.45124,R,ugm-3,20.45371,R,ugm-3,44.14528,R,ugm-3,,,,,,
04-01-2014,12:00,32.24239,R,ugm-3,42.22800,R,ugm-3,91.66565,R,ugm-3,,,,,,
04-01-2014,13:00,45.01319,R,ugm-3,59.70108,R,ugm-3,128.72033,R,ugm-3,,,,,,
04-01-2014,14:00,35.25837,R,ugm-3,50.41254,R,ugm-3,104.47462,R,ugm-3,,,,,,
04-01-2014,15:00,38.53502,R,ugm-3,60.54258,R,ugm-3,119.62879,R,ugm-3,,,,,,
04-01-2014,16:00,110.35518,R,ugm-3,99.89753,R,ugm-3,269.10644,R,ugm-3,,,,,,
04-01-2014,17:00,114.26484,R,ugm-3,98.64914,R,ugm-3,273.85279,R,ugm-3,,,,,,
04-01-2014,18:00,122.60491,R,ugm-3,91.92288,R,ugm-3,279.91446,R,ugm-3,,,,,,
04-01-2014,19:00,100.74941,R,ugm-3,80.48756,R,ugm-3,234.96784,R,ugm-3,,,,,,
04-01-2014,20:00,82.20830,R,ugm-3,73.80624,R,ugm-3,199.85721,R,ugm-3,,,,,,
04-01-2014,21:00,36.85959,R,ugm-3,49.33055,R,ugm-3,105.84779,R,ugm-3,,,,,,
04-01-2014,22:00,27.88682,R,ugm-3,42.44459,R,ugm-3,85.20379,R,ugm-3,,,,,,
04-01-2014,23:00,20.70113,R,ugm-3,32.93325,R,ugm-3,64.67453,R,ugm-3,,,,,,
04-01-2014,24:00,16.38204,R,ugm-3,25.20340,R,ugm-3,50.32218,R,ugm-3,,,,,,
05-01-2014,01:00,7.62641,R,ugm-3,14.86140,R,ugm-3,26.55506,R,ugm-3,,,,,,
05-01-2014,02:00,9.26619,R,ugm-3,25.62495,R,ugm-3,39.83291,R,ugm-3,,,,,,
05-01-2014,03:00,5.47752,R,ugm-3,15.58162,R,ugm-3,23.98036,R,ugm-3,,,,,,
05-01-2014,04:00,5.17941,R,ugm-3,22.79174,R,ugm-3,30.73340,R,ugm-3,,,,,,
05-01-2014,05:00,3.20431,R,ugm-3,14.60289,R,ugm-3,19.51611,R,ugm-3,,,,,,
05-01-2014,06:00,5.85046,R,ugm-3,20.84673,R,ugm-3,29.81731,R,ugm-3,,,,,,
05-01-2014,07:00,17.62560,R,ugm-3,34.32698,R,ugm-3,61.35252,R,ugm-3,,,,,,
05-01-2014,08:00,53.77079,R,ugm-3,48.72715,R,ugm-3,131.17455,R,ugm-3,,,,,,
05-01-2014,09:00,57.57131,R,ugm-3,56.63534,R,ugm-3,144.91013,R,ugm-3,,,,,,
05-01-2014,10:00,82.87311,R,ugm-3,60.59230,R,ugm-3,187.66263,R,ugm-3,,,,,,
05-01-2014,11:00,104.44828,R,ugm-3,72.66639,R,ugm-3,232.81819,R,ugm-3,,,,,,
05-01-2014,12:00,129.45197,R,ugm-3,90.70079,R,ugm-3,289.19104,R,ugm-3,,,,,,
05-01-2014,13:00,98.37455,R,ugm-3,83.81053,R,ugm-3,234.64941,R,ugm-3,,,,,,
05-01-2014,14:00,162.35512,R,ugm-3,107.61159,R,ugm-3,356.55263,R,ugm-3,,,,,,
05-01-2014,15:00,36.66688,R,ugm-3,49.82828,R,ugm-3,106.05004,R,ugm-3,,,,,,
05-01-2014,16:00,11.21603,R,ugm-3,24.06594,R,ugm-3,41.26362,R,ugm-3,,,,,,
05-01-2014,17:00,12.29713,R,ugm-3,21.49315,R,ugm-3,40.34849,R,ugm-3,,,,,,
05-01-2014,18:00,7.93719,R,ugm-3,17.70449,R,ugm-3,29.87468,R,ugm-3,,,,,,
05-01-2014,19:00,8.64535,R,ugm-3,24.97486,R,ugm-3,38.23088,R,ugm-3,,,,,,
05-01-2014,20:00,22.91664,R,ugm-3,36.85866,R,ugm-3,71.99702,R,ugm-3,,,,,,
05-01-2014,21:00,8.16046,R,ugm-3,20.96769,R,ugm-3,33.48023,R,ugm-3,,,,,,
05-01-2014,22:00,3.94989,R,ugm-3,7.50752,R,ugm-3,13.56393,R,ugm-3,,,,,,
05-01-2014,23:00,2.34773,R,ugm-3,7.27372,R,ugm-3,10.87352,R,ugm-3,,,,,,
05-01-2014,24:00,0.96884,R,ugm-3,4.80946,R,ugm-3,6.29499,R,ugm-3,,,,,,
06-01-2014,01:00,2.55904,R,ugm-3,8.90651,R,ugm-3,12.83033,R,ugm-3,,,,,,
06-01-2014,02:00,1.71421,R,ugm-3,3.55853,R,ugm-3,6.18694,R,ugm-3,,,,,,
06-01-2014,03:00,1.75121,R,ugm-3,4.76117,R,ugm-3,7.44632,R,ugm-3,,,,,,
06-01-2014,04:00,2.34742,R,ugm-3,10.66314,R,ugm-3,14.26247,R,ugm-3,,,,,,
06-01-2014,05:00,11.58866,R,ugm-3,22.67030,R,ugm-3,40.43933,R,ugm-3,,,,,,
06-01-2014,06:00,17.84886,R,ugm-3,31.51561,R,ugm-3,58.88348,R,ugm-3,,,,,,
06-01-2014,07:00,35.36283,R,ugm-3,64.74721,R,ugm-3,118.96945,R,ugm-3,,,,,,
06-01-2014,08:00,139.25200,R,ugm-3,111.42942,R,ugm-3,324.94618,R,ugm-3,,,,,,
06-01-2014,09:00,145.28893,R,ugm-3,122.79302,R,ugm-3,345.56628,R,ugm-3,,,,,,
06-01-2014,10:00,31.67362,R,ugm-3,42.27964,R,ugm-3,90.84518,R,ugm-3,,,,,,
06-01-2014,11:00,50.90169,R,ugm-3,59.42185,R,ugm-3,137.47002,R,ugm-3,,,,,,
06-01-2014,12:00,50.93849,R,ugm-3,56.95999,R,ugm-3,135.06458,R,ugm-3,,,,,,
06-01-2014,13:00,28.05895,R,ugm-3,29.95071,R,ugm-3,72.97383,R,ugm-3,,,,,,
06-01-2014,14:00,27.38853,R,ugm-3,34.64446,R,ugm-3,76.63961,R,ugm-3,,,,,,
06-01-2014,15:00,21.94811,R,ugm-3,23.11065,R,ugm-3,56.76396,R,ugm-3,,,,,,
06-01-2014,16:00,42.14440,R,ugm-3,56.92652,R,ugm-3,121.54703,R,ugm-3,,,,,,
06-01-2014,17:00,35.80998,R,ugm-3,55.29755,R,ugm-3,110.20542,R,ugm-3,,,,,,
06-01-2014,18:00,29.40073,R,ugm-3,42.44268,R,ugm-3,87.52317,R,ugm-3,,,,,,
06-01-2014,19:00,13.71250,R,ugm-3,17.29426,R,ugm-3,38.31981,R,ugm-3,,,,,,
06-01-2014,20:00,7.52714,R,ugm-3,8.96484,R,ugm-3,20.50630,R,ugm-3,,,,,,
06-01-2014,21:00,5.96209,R,ugm-3,8.61533,R,ugm-3,17.75708,R,ugm-3,,,,,,
06-01-2014,22:00,4.73257,R,ugm-3,9.06764,R,ugm-3,16.32414,R,ugm-3,,,,,,
06-01-2014,23:00,2.57100,R,ugm-3,4.19172,R,ugm-3,8.13386,R,ugm-3,,,,,,
06-01-2014,24:00,3.13010,R,ugm-3,8.20319,R,ugm-3,13.00261,R,ugm-3,,,,,,
07-01-2014,01:00,1.41735,R,ugm-3,2.79098,R,ugm-3,4.96421,R,ugm-3,,,,,,
07-01-2014,02:00,0.47273,R,ugm-3,-0.26647,R,ugm-3,0.45836,R,ugm-3,,,,,,
07-01-2014,03:00,0.44778,R,ugm-3,-0.34234,R,ugm-3,0.34425,R,ugm-3,,,,,,
07-01-2014,04:00,0.89525,R,ugm-3,0.51781,R,ugm-3,1.89051,R,ugm-3,,,,,,
07-01-2014,05:00,1.23077,R,ugm-3,3.09586,R,ugm-3,4.98302,R,ugm-3,,,,,,
07-01-2014,06:00,2.42382,R,ugm-3,3.27181,R,ugm-3,6.98828,R,ugm-3,,,,,,
07-01-2014,07:00,3.35648,R,ugm-3,5.10638,R,ugm-3,10.25291,R,ugm-3,,,,,,
07-01-2014,08:00,13.53757,R,ugm-3,16.81757,R,ugm-3,37.57489,R,ugm-3,,,,,,
07-01-2014,09:00,26.85187,R,ugm-3,30.88544,R,ugm-3,72.05774,R,ugm-3,,,,,,
07-01-2014,10:00,18.83361,R,ugm-3,21.75756,R,ugm-3,50.63535,R,ugm-3,,,,,,
07-01-2014,11:00,16.85726,R,ugm-3,23.87135,R,ugm-3,49.71878,R,ugm-3,,,,,,
07-01-2014,12:00,41.65764,R,ugm-3,41.80677,R,ugm-3,105.68093,R,ugm-3,,,,,,
07-01-2014,13:00,13.05300,R,ugm-3,18.47810,R,ugm-3,38.49241,R,ugm-3,,,,,,
07-01-2014,14:00,16.26043,R,ugm-3,21.75038,R,ugm-3,46.68269,R,ugm-3,,,,,,
07-01-2014,15:00,15.17871,R,ugm-3,16.42120,R,ugm-3,39.69489,R,ugm-3,,,,,,
07-01-2014,16:00,16.55853,R,ugm-3,16.71047,R,ugm-3,42.09986,R,ugm-3,,,,,,
07-01-2014,17:00,,,,,,,,,,,,,,,
07-01-2014,18:00,19.20655,R,ugm-3,28.05924,R,ugm-3,57.50888,R,ugm-3,,,,,,
07-01-2014,19:00,14.47024,R,ugm-3,24.72432,R,ugm-3,46.91171,R,ugm-3,,,,,,
07-01-2014,20:00,10.21882,R,ugm-3,22.42263,R,ugm-3,38.09126,R,ugm-3,,,,,,
07-01-2014,21:00,5.25862,R,ugm-3,13.01552,R,ugm-3,21.07862,R,ugm-3,,,,,,
07-01-2014,22:00,5.22120,R,ugm-3,11.41237,R,ugm-3,19.41809,R,ugm-3,,,,,,
07-01-2014,23:00,3.69232,R,ugm-3,4.70618,R,ugm-3,10.36766,R,ugm-3,,,,,,
07-01-2014,24:00,1.79050,R,ugm-3,2.35285,R,ugm-3,5.09825,R,ugm-3,,,,,,
08-01-2014,01:00,0.92009,R,ugm-3,1.79966,R,ugm-3,3.21045,R,ugm-3,,,,,,
08-01-2014,02:00,0.77083,R,ugm-3,0.88166,R,ugm-3,2.06359,R,ugm-3,,,,,,
08-01-2014,03:00,0.41036,R,ugm-3,0.63256,R,ugm-3,1.26177,R,ugm-3,,,,,,
08-01-2014,04:00,0.67136,R,ugm-3,0.17499,R,ugm-3,1.20440,R,ugm-3,,,,,,
08-01-2014,05:00,0.89494,R,ugm-3,4.18838,R,ugm-3,5.56059,R,ugm-3,,,,,,
08-01-2014,06:00,2.46155,R,ugm-3,4.48099,R,ugm-3,8.25531,R,ugm-3,,,,,,
08-01-2014,07:00,10.77823,R,ugm-3,19.01647,R,ugm-3,35.54286,R,ugm-3,,,,,,
08-01-2014,08:00,19.65402,R,ugm-3,24.55411,R,ugm-3,54.68985,R,ugm-3,,,,,,
08-01-2014,09:00,38.18952,R,ugm-3,51.91290,R,ugm-3,110.46935,R,ugm-3,,,,,,
08-01-2014,10:00,23.49508,R,ugm-3,27.49314,R,ugm-3,63.51843,R,ugm-3,,,,,,
08-01-2014,11:00,25.21105,R,ugm-3,37.64613,R,ugm-3,76.30253,R,ugm-3,,,,,,
08-01-2014,12:00,19.05719,R,ugm-3,30.62964,R,ugm-3,59.85025,R,ugm-3,,,,,,
08-01-2014,13:00,17.04373,R,ugm-3,27.58208,R,ugm-3,53.71543,R,ugm-3,,,,,,
08-01-2014,14:00,26.47924,R,ugm-3,43.21103,R,ugm-3,83.81197,R,ugm-3,,,,,,
08-01-2014,15:00,35.61603,R,ugm-3,48.52108,R,ugm-3,103.13156,R,ugm-3,,,,,,
08-01-2014,16:00,40.98659,R,ugm-3,58.00039,R,ugm-3,120.84562,R,ugm-3,,,,,,
08-01-2014,17:00,59.48436,R,ugm-3,73.49259,R,ugm-3,164.70068,R,ugm-3,,,,,,
08-01-2014,18:00,57.02313,R,ugm-3,62.13187,R,ugm-3,149.56611,R,ugm-3,,,,,,
08-01-2014,19:00,36.62291,R,ugm-3,45.02790,R,ugm-3,101.18225,R,ugm-3,,,,,,
08-01-2014,20:00,23.30892,R,ugm-3,44.91937,R,ugm-3,80.65921,R,ugm-3,,,,,,
08-01-2014,21:00,20.06438,R,ugm-3,33.67100,R,ugm-3,64.43595,R,ugm-3,,,,,,
08-01-2014,22:00,8.42863,R,ugm-3,16.71477,R,ugm-3,29.63849,R,ugm-3,,,,,,
08-01-2014,23:00,2.98385,R,ugm-3,6.48911,R,ugm-3,11.06429,R,ugm-3,,,,,,
08-01-2014,24:00,2.83449,R,ugm-3,4.30982,R,ugm-3,8.65598,R,ugm-3,,,,,,
09-01-2014,01:00,2.11501,R,ugm-3,3.79504,R,ugm-3,7.03800,R,ugm-3,,,,,,
09-01-2014,02:00,1.36870,R,ugm-3,4.02135,R,ugm-3,6.12000,R,ugm-3,,,,,,
09-01-2014,03:00,1.38107,R,ugm-3,0.92326,R,ugm-3,3.04088,R,ugm-3,,,,,,
09-01-2014,04:00,0.82104,R,ugm-3,0.57710,R,ugm-3,1.83600,R,ugm-3,,,,,,
09-01-2014,05:00,1.15718,R,ugm-3,1.84030,R,ugm-3,3.61463,R,ugm-3,,,,,,
09-01-2014,06:00,2.57536,R,ugm-3,4.19842,R,ugm-3,8.14725,R,ugm-3,,,,,,
09-01-2014,07:00,12.42966,R,ugm-3,17.77621,R,ugm-3,36.83475,R,ugm-3,,,,,,
09-01-2014,08:00,28.21829,R,ugm-3,31.60693,R,ugm-3,74.87438,R,ugm-3,,,,,,
09-01-2014,09:00,34.74978,R,ugm-3,36.79650,R,ugm-3,90.07875,R,ugm-3,,,,,,
09-01-2014,10:00,28.10604,R,ugm-3,28.85293,R,ugm-3,71.94825,R,ugm-3,,,,,,
09-01-2014,11:00,26.46396,R,ugm-3,32.23136,R,ugm-3,72.80888,R,ugm-3,,,,,,
09-01-2014,12:00,22.73111,R,ugm-3,24.29975,R,ugm-3,59.15363,R,ugm-3,,,,,,
09-01-2014,13:00,25.08258,R,ugm-3,25.80058,R,ugm-3,64.26000,R,ugm-3,,,,,,
09-01-2014,14:00,22.43269,R,ugm-3,31.81444,R,ugm-3,66.21075,R,ugm-3,,,,,,
09-01-2014,15:00,29.15096,R,ugm-3,39.12736,R,ugm-3,83.82488,R,ugm-3,,,,,,
09-01-2014,16:00,26.61271,R,ugm-3,43.82255,R,ugm-3,84.62813,R,ugm-3,,,,,,
09-01-2014,17:00,36.35505,R,ugm-3,41.16274,R,ugm-3,96.90638,R,ugm-3,,,,,,
09-01-2014,18:00,42.06582,R,ugm-3,47.15173,R,ugm-3,111.65175,R,ugm-3,,,,,,
09-01-2014,19:00,25.94135,R,ugm-3,31.08195,R,ugm-3,70.85813,R,ugm-3,,,,,,
09-01-2014,20:00,19.52149,R,ugm-3,26.81134,R,ugm-3,56.74388,R,ugm-3,,,,,,
09-01-2014,21:00,10.97375,R,ugm-3,20.75445,R,ugm-3,37.58063,R,ugm-3,,,,,,
09-01-2014,22:00,9.18231,R,ugm-3,15.23928,R,ugm-3,29.31863,R,ugm-3,,,,,,
09-01-2014,23:00,5.30009,R,ugm-3,9.65956,R,ugm-3,17.78625,R,ugm-3,,,,,,
09-01-2014,24:00,4.18064,R,ugm-3,9.82690,R,ugm-3,16.23713,R,ugm-3,,,,,,
10-01-2014,01:00,2.96317,R,ugm-3,4.71304,R,ugm-3,9.25650,R,ugm-3,,,,,,
10-01-2014,02:00,1.07143,R,ugm-3,1.49366,R,ugm-3,3.13650,R,ugm-3,,,,,,
10-01-2014,03:00,0.93392,R,ugm-3,0.57614,R,ugm-3,2.00813,R,ugm-3,,,,,,
10-01-2014,04:00,0.89650,R,ugm-3,0.17452,R,ugm-3,1.54913,R,ugm-3,,,,,,
10-01-2014,05:00,1.64332,R,ugm-3,2.01291,R,ugm-3,4.53263,R,ugm-3,,,,,,
10-01-2014,06:00,3.36210,R,ugm-3,8.72961,R,ugm-3,13.88475,R,ugm-3,,,,,,
10-01-2014,07:00,10.31049,R,ugm-3,15.34542,R,ugm-3,31.15463,R,ugm-3,,,,,,
10-01-2014,08:00,37.73020,R,ugm-3,42.66883,R,ugm-3,100.52100,R,ugm-3,,,,,,
10-01-2014,09:00,59.50931,R,ugm-3,58.55979,R,ugm-3,149.80613,R,ugm-3,,,,,,
10-01-2014,10:00,51.62699,R,ugm-3,59.57246,R,ugm-3,138.73275,R,ugm-3,,,,,,
10-01-2014,11:00,58.53797,R,ugm-3,64.29490,R,ugm-3,154.05188,R,ugm-3,,,,,,
10-01-2014,12:00,49.23623,R,ugm-3,40.91937,R,ugm-3,116.41388,R,ugm-3,,,,,,
10-01-2014,13:00,21.14392,R,ugm-3,23.00403,R,ugm-3,55.42425,R,ugm-3,,,,,,
10-01-2014,14:00,20.21000,R,ugm-3,23.69014,R,ugm-3,54.67838,R,ugm-3,,,,,,
10-01-2014,15:00,31.52894,R,ugm-3,36.22705,R,ugm-3,84.57075,R,ugm-3,,,,,,
10-01-2014,16:00,30.07178,R,ugm-3,35.93683,R,ugm-3,82.04625,R,ugm-3,,,,,,
10-01-2014,17:00,42.06332,R,ugm-3,51.34393,R,ugm-3,115.84013,R,ugm-3,,,,,,
10-01-2014,18:00,35.75042,R,ugm-3,48.91745,R,ugm-3,103.73400,R,ugm-3,,,,,,
10-01-2014,19:00,27.15840,R,ugm-3,33.97795,R,ugm-3,75.62025,R,ugm-3,,,,,,
10-01-2014,20:00,28.24168,R,ugm-3,45.45582,R,ugm-3,88.75913,R,ugm-3,,,,,,
10-01-2014,21:00,18.30475,R,ugm-3,31.71786,R,ugm-3,59.78475,R,ugm-3,,,,,,
10-01-2014,22:00,10.53438,R,ugm-3,16.60863,R,ugm-3,32.76113,R,ugm-3,,,,,,
10-01-2014,23:00,5.64091,R,ugm-3,9.71072,R,ugm-3,18.36000,R,ugm-3,,,,,,
10-01-2014,24:00,6.16385,R,ugm-3,15.85128,R,ugm-3,25.30238,R,ugm-3,,,,,,
11-01-2014,01:00,2.56487,R,ugm-3,5.79105,R,ugm-3,9.72379,R,ugm-3,,,,,,
11-01-2014,02:00,1.51921,R,ugm-3,1.03913,R,ugm-3,3.36855,R,ugm-3,,,,,,
11-01-2014,03:00,1.41974,R,ugm-3,2.47478,R,ugm-3,4.65168,R,ugm-3,,,,,,
11-01-2014,04:00,1.30779,R,ugm-3,1.21061,R,ugm-3,3.21587,R,ugm-3,,,,,,
11-01-2014,05:00,1.08328,R,ugm-3,1.15276,R,ugm-3,2.81377,R,ugm-3,,,,,,
11-01-2014,06:00,1.56910,R,ugm-3,1.67105,R,ugm-3,4.07697,R,ugm-3,,,,,,
11-01-2014,07:00,8.66686,R,ugm-3,14.04492,R,ugm-3,27.33393,R,ugm-3,,,,,,
11-01-2014,08:00,11.69250,R,ugm-3,22.15344,R,ugm-3,40.08170,R,ugm-3,,,,,,
11-01-2014,09:00,6.57452,R,ugm-3,12.60146,R,ugm-3,22.68225,R,ugm-3,,,,,,
11-01-2014,10:00,14.41972,R,ugm-3,25.32150,R,ugm-3,47.43143,R,ugm-3,,,,,,
11-01-2014,11:00,24.35665,R,ugm-3,32.99684,R,ugm-3,70.34318,R,ugm-3,,,,,,
11-01-2014,12:00,20.84457,R,ugm-3,29.82544,R,ugm-3,61.78666,R,ugm-3,,,,,,
11-01-2014,13:00,25.10378,R,ugm-3,29.61172,R,ugm-3,68.10365,R,ugm-3,,,,,,
11-01-2014,14:00,22.93691,R,ugm-3,34.94377,R,ugm-3,70.11321,R,ugm-3,,,,,,
11-01-2014,15:00,34.92845,R,ugm-3,43.31573,R,ugm-3,96.87195,R,ugm-3,,,,,,
11-01-2014,16:00,38.81379,R,ugm-3,39.36833,R,ugm-3,98.88199,R,ugm-3,,,,,,
11-01-2014,17:00,25.02895,R,ugm-3,31.33392,R,ugm-3,69.71110,R,ugm-3,,,,,,
11-01-2014,18:00,21.81652,R,ugm-3,31.60837,R,ugm-3,65.05990,R,ugm-3,,,,,,
11-01-2014,19:00,14.56909,R,ugm-3,21.99088,R,ugm-3,44.32984,R,ugm-3,,,,,,
11-01-2014,20:00,17.48278,R,ugm-3,26.02243,R,ugm-3,52.82899,R,ugm-3,,,,,,
11-01-2014,21:00,21.03166,R,ugm-3,43.72214,R,ugm-3,75.97024,R,ugm-3,,,,,,
11-01-2014,22:00,7.39680,R,ugm-3,18.63301,R,ugm-3,29.97461,R,ugm-3,,,,,,
11-01-2014,23:00,6.12643,R,ugm-3,13.28805,R,ugm-3,22.68177,R,ugm-3,,,,,,
11-01-2014,24:00,5.04283,R,ugm-3,10.47046,R,ugm-3,18.20270,R,ugm-3,,,,,,
12-01-2014,01:00,2.81640,R,ugm-3,6.02629,R,ugm-3,10.34471,R,ugm-3,,,,,,
12-01-2014,02:00,4.21213,R,ugm-3,11.77845,R,ugm-3,18.23696,R,ugm-3,,,,,,
12-01-2014,03:00,3.96330,R,ugm-3,10.58951,R,ugm-3,16.66648,R,ugm-3,,,,,,
12-01-2014,04:00,2.91588,R,ugm-3,9.09203,R,ugm-3,13.56297,R,ugm-3,,,,,,
12-01-2014,05:00,1.83197,R,ugm-3,6.15682,R,ugm-3,8.96580,R,ugm-3,,,,,,
12-01-2014,06:00,3.32749,R,ugm-3,12.88643,R,ugm-3,17.98850,R,ugm-3,,,,,,
12-01-2014,07:00,11.59022,R,ugm-3,30.38915,R,ugm-3,48.16058,R,ugm-3,,,,,,
12-01-2014,08:00,57.46529,R,ugm-3,49.52993,R,ugm-3,137.64215,R,ugm-3,,,,,,
12-01-2014,09:00,55.55817,R,ugm-3,51.07475,R,ugm-3,136.26276,R,ugm-3,,,,,,
12-01-2014,10:00,44.08021,R,ugm-3,44.30689,R,ugm-3,111.89559,R,ugm-3,,,,,,
12-01-2014,11:00,48.82868,R,ugm-3,45.58874,R,ugm-3,120.45833,R,ugm-3,,,,,,
12-01-2014,12:00,22.13334,R,ugm-3,36.34945,R,ugm-3,70.28677,R,ugm-3,,,,,,
12-01-2014,13:00,35.14455,R,ugm-3,45.88135,R,ugm-3,99.76891,R,ugm-3,,,,,,
12-01-2014,14:00,73.28012,R,ugm-3,64.76347,R,ugm-3,177.12475,R,ugm-3,,,,,,
12-01-2014,15:00,60.90472,R,ugm-3,58.45126,R,ugm-3,151.83720,R,ugm-3,,,,,,
12-01-2014,16:00,31.18157,R,ugm-3,43.27988,R,ugm-3,91.09094,R,ugm-3,,,,,,
12-01-2014,17:00,71.44784,R,ugm-3,64.46942,R,ugm-3,174.02124,R,ugm-3,,,,,,
12-01-2014,18:00,97.43284,R,ugm-3,72.55690,R,ugm-3,221.95184,R,ugm-3,,,,,,
12-01-2014,19:00,33.46194,R,ugm-3,53.11634,R,ugm-3,104.42393,R,ugm-3,,,,,,
12-01-2014,20:00,14.65609,R,ugm-3,43.33151,R,ugm-3,65.80387,R,ugm-3,,,,,,
12-01-2014,21:00,16.37580,R,ugm-3,42.87825,R,ugm-3,67.98746,R,ugm-3,,,,,,
12-01-2014,22:00,10.87989,R,ugm-3,31.42046,R,ugm-3,48.10272,R,ugm-3,,,,,,
12-01-2014,23:00,11.81474,R,ugm-3,40.61911,R,ugm-3,58.73479,R,ugm-3,,,,,,
12-01-2014,24:00,4.26234,R,ugm-3,21.51037,R,ugm-3,28.04586,R,ugm-3,,,,,,
13-01-2014,01:00,8.89865,R,ugm-3,25.74225,R,ugm-3,39.38666,R,ugm-3,,,,,,
13-01-2014,02:00,2.41810,R,ugm-3,13.91663,R,ugm-3,17.62433,R,ugm-3,,,,,,
13-01-2014,03:00,2.65425,R,ugm-3,11.73462,R,ugm-3,15.80442,R,ugm-3,,,,,,
13-01-2014,04:00,1.08390,R,ugm-3,4.37245,R,ugm-3,6.03442,R,ugm-3,,,,,,
13-01-2014,05:00,4.97267,R,ugm-3,7.71981,R,ugm-3,15.34447,R,ugm-3,,,,,,
13-01-2014,06:00,3.88815,R,ugm-3,7.77383,R,ugm-3,13.73558,R,ugm-3,,,,,,
13-01-2014,07:00,14.50641,R,ugm-3,21.37697,R,ugm-3,43.61982,R,ugm-3,,,,,,
13-01-2014,08:00,73.91593,R,ugm-3,55.91481,R,ugm-3,169.25099,R,ugm-3,,,,,,
13-01-2014,09:00,161.66474,R,ugm-3,99.29796,R,ugm-3,347.18043,R,ugm-3,,,,,,
13-01-2014,10:00,116.61288,R,ugm-3,82.74527,R,ugm-3,261.54920,R,ugm-3,,,,,,
13-01-2014,11:00,92.31049,R,ugm-3,69.95112,R,ugm-3,211.49190,R,ugm-3,,,,,,
13-01-2014,12:00,45.12700,R,ugm-3,49.19524,R,ugm-3,118.38901,R,ugm-3,,,,,,
13-01-2014,13:00,39.40688,R,ugm-3,42.85195,R,ugm-3,103.27500,R,ugm-3,,,,,,
13-01-2014,14:00,85.76778,R,ugm-3,75.09862,R,ugm-3,206.60738,R,ugm-3,,,,,,
13-01-2014,15:00,117.84646,R,ugm-3,90.68071,R,ugm-3,271.37610,R,ugm-3,,,,,,
13-01-2014,16:00,97.95639,R,ugm-3,90.89156,R,ugm-3,241.08927,R,ugm-3,,,,,,
13-01-2014,17:00,116.98645,R,ugm-3,98.26377,R,ugm-3,277.64049,R,ugm-3,,,,,,
13-01-2014,18:00,139.90496,R,ugm-3,107.83488,R,ugm-3,322.35283,R,ugm-3,,,,,,
13-01-2014,19:00,143.68148,R,ugm-3,107.90660,R,ugm-3,328.21512,R,ugm-3,,,,,,
13-01-2014,20:00,182.56481,R,ugm-3,104.83656,R,ugm-3,384.76536,R,ugm-3,,,,,,
13-01-2014,21:00,27.10632,R,ugm-3,56.77017,R,ugm-3,98.33262,R,ugm-3,,,,,,
13-01-2014,22:00,46.92156,R,ugm-3,63.39746,R,ugm-3,135.34284,R,ugm-3,,,,,,
13-01-2014,23:00,11.70217,R,ugm-3,38.43599,R,ugm-3,56.37907,R,ugm-3,,,,,,
13-01-2014,24:00,2.09359,R,ugm-3,23.62894,R,ugm-3,26.83907,R,ugm-3,,,,,,
14-01-2014,01:00,3.66706,R,ugm-3,22.98315,R,ugm-3,28.60590,R,ugm-3,,,,,,
14-01-2014,02:00,7.65842,R,ugm-3,26.75588,R,ugm-3,38.49863,R,ugm-3,,,,,,
14-01-2014,03:00,6.39865,R,ugm-3,18.60289,R,ugm-3,28.41401,R,ugm-3,,,,,,
14-01-2014,04:00,4.34060,R,ugm-3,21.01120,R,ugm-3,27.66670,R,ugm-3,,,,,,
14-01-2014,05:00,4.86447,R,ugm-3,21.87613,R,ugm-3,29.33488,R,ugm-3,,,,,,
14-01-2014,06:00,21.14174,R,ugm-3,30.79555,R,ugm-3,63.21243,R,ugm-3,,,,,,
14-01-2014,07:00,55.15561,R,ugm-3,44.32745,R,ugm-3,128.89820,R,ugm-3,,,,,,
14-01-2014,08:00,151.06050,R,ugm-3,68.68122,R,ugm-3,300.30410,R,ugm-3,,,,,,
14-01-2014,09:00,153.49274,R,ugm-3,88.82128,R,ugm-3,324.17353,R,ugm-3,,,,,,
14-01-2014,10:00,203.33485,R,ugm-3,84.58318,R,ugm-3,396.35893,R,ugm-3,,,,,,